Location: Brienzwiler
(46.7508°N, 8.1014°E)
Time: 01:36:22
(UTC+00:00)

Cosmos 44 - Pass Details

Date: 05 July 2020
Orbit: 586 x 775 km, 65.1° (Epoch: 11 August)

Event Time Altitude Azimuth Distance (km) Brightness Sun altitude
Exits shadow 22:05:17 22° 104° (ESE) 1,327 4.4 -17.8°
Drops below altitude 10° 22:08:15 10° 62° (ENE) 1,950 5.7 -18.0°
Sets 22:10:55 0° 48° (NE) 2,882 6.8 -18.2°
